Location: Trani
(41.2830°N, 16.4170°E)
Time: 03:52:10
(UTC+02:00)

ISS - Pass Details

Date: 16 May 2021
Orbit: 417 x 422 km, 51.6° (Epoch: 14 June)

Event Time Altitude Azimuth Distance (km) Brightness Sun altitude
Rises 02:53:40 0° 309° (NW) 2,373 0.2 -23.2°
Reaches altitude 10° 02:55:53 10° 319° (NW) 1,507 -0.8 -23.0°
Maximum altitude 02:59:02 35° 27° (NNE) 705 -2.1 -22.7°
Drops below altitude 10° 03:02:10 10° 95° (E) 1,503 -0.6 -22.4°
Sets 03:04:22 0° 105° (ESE) 2,366 0.3 -22.1°
